This demonstration page uses our WeatherBlox Daily Observations layout. Learn more.

Left ArrowRight Arrow

39.08367, -84.50855

Hourly Observations for July 17, 2017

Temp ( °F °C ) Dew Point ( °F °C ) Humidity (%) Winds ( mph kmh ) Pressure ( in mb ) Visibility ( mi km ) Precip ( " mm )
12:53 am 00:53 Clear 68 20 67 19.4 96 96 SE 3 6 29.99 1016 10 16.0934 N/A
1:53 am 01:53 Clear 73 22.8 68 20 84 84 NNW 6 9 29.98 1015 10 16.0934 N/A
2:53 am 02:53 Mostly Clear 70 21.1 68 20 93 93 VRB 5 7 29.93 1014 10 16.0934 N/A
3:53 am 03:53 Clear 71 21.7 68 20 90 90 S 6 9 29.93 1014 10 16.0934 N/A
4:53 am 04:53 Clear 69 20.6 67 19.4 93 93 ENE 5 7 29.94 1014 10 16.0934 N/A
5:53 am 05:53 Clear 67 19.4 67 19.4 100 100 N N/A 29.96 1014 10 16.0934 N/A
6:53 am 06:53 Sunny 66 18.9 66 18.9 100 100 NE 3 6 29.97 1015 10 16.0934 N/A
7:53 am 07:53 Sunny 71 21.7 69 20.6 94 94 N N/A 30 1016 10 16.0934 N/A
8:53 am 08:53 Sunny 75 23.9 67 19.4 76 76 N N/A 30.01 1016 10 16.0934 N/A
9:53 am 09:53 Sunny 76 24.4 68 20 77 77 N N/A 30.02 1017 10 16.0934 N/A
10:53 am 10:53 Sunny 80 26.7 70 21.1 71 71 N N/A 30.01 1016 10 16.0934 N/A
11:53 am 11:53 Mostly Sunny 83 28.3 69 20.6 63 63 N N/A 30.01 1016 10 16.0934 N/A
12:53 pm 12:53 Mostly Sunny 86 30 69 20.6 57 57 VRB 5 7 30.01 1016 10 16.0934 N/A
1:53 pm 13:53 Mostly Sunny 86 30 70 21.1 59 59 VRB 7 11 29.99 1016 10 16.0934 N/A
2:53 pm 14:53 Mostly Cloudy 86 30 70 21.1 59 59 SW 5 7 29.99 1016 10 16.0934 N/A
3:53 pm 15:53 Mostly Cloudy 87 30.6 71 21.7 59 59 SSE 6 9 29.98 1015 10 16.0934 N/A
4:53 pm 16:53 Partly Cloudy 83 28.3 72 22.2 70 70 S 6 9 29.97 1015 10 16.0934 N/A
5:53 pm 17:53 Mostly Cloudy 84 28.9 71 21.7 65 65 S 6 9 29.97 1015 10 16.0934 N/A
6:53 pm 18:53 Partly Cloudy 86 30 71 21.7 61 61 NNE 6 9 29.97 1015 10 16.0934 N/A
7:53 pm 19:53 Partly Cloudy 82 27.8 71 21.7 69 69 N N/A 29.97 1015 10 16.0934 N/A
8:53 pm 20:53 Mostly Cloudy 78 25.6 74 23.3 87 87 E 3 6 29.98 1015 10 16.0934 N/A
9:23 pm 21:23 Cloudy with Light Rain 79 26.1 74 23.3 85 85 NNE 5 7 29.97 1015 10 16.0934 0.01 0.254
9:40 pm 21:40 Cloudy with Heavy Rain 76 24.4 72 22.2 88 88 VRB 6 9 29.97 1015 2.5 4.02335 0.22 5.588
9:48 pm 21:48 Cloudy with Heavy Rain 75 24 72 22 89 89 ESE 8 13 29.97 1015 4 6.43736 0.26 6.604
9:53 pm 21:53 Cloudy with Light Rain 74 23.3 73 22.8 97 97 ESE 8 13 29.99 1016 8 12.87472 0.26 6.604
10:53 pm 22:53 Mostly Cloudy 73 22.8 73 22.8 100 100 N N/A 30 1016 7 11.26538 N/A
11:46 pm 23:46 Clear with Mist and Fog 72 22.2 72 22.2 100 100 N N/A 30 1016 1.75 2.816345 N/A
11:53 pm 23:53 Clear with Mist and Fog 71 21.7 71 21.7 100 100 N N/A 30 1016 0.75 1.207005 N/A

Powered by AerisWeather